Location: Unspecified
(44.7150°N, 0.0000°E)
Time: 01:12:14
(UTC+00:00)

CHECKMATE 8 - Visible Passes

Search period start: 04 April 2026 00:00
Search period end: 14 April 2026 00:00
Orbit: 941 x 951 km, 81.0° (Epoch: 29 March)

Date Brightness Start Highest point End Pass type
(mag) Time Alt. Az. Time Alt. Az. Time Alt. Az.
4 Apr ? 20:05:06 26° ESE 20:06:42 29° E 20:11:50 10° NNE visible
4 Apr ? 21:49:04 32° WSW 21:51:26 46° WNW 21:57:19 10° N visible
5 Apr ? 20:20:26 28° SE 20:23:08 44° E 20:28:55 10° NNE visible
5 Apr ? 22:04:22 16° WSW 22:08:18 31° WNW 22:13:40 10° N visible
6 Apr ? 20:35:29 21° S 20:39:40 69° E 20:45:46 10° NNE visible
6 Apr ? 22:20:50 10° WSW 22:25:18 21° WNW 22:29:46 10° NNW visible
7 Apr ? 19:08:32 10° ESE 19:12:07 16° E 19:15:42 10° NE visible
7 Apr ? 20:50:11 10° SSW 20:56:19 79° WNW 21:02:29 10° N visible
7 Apr ? 22:39:26 10° W 22:42:24 14° WNW 22:45:22 10° NNW visible
8 Apr ? 19:23:34 10° SE 19:28:26 25° E 19:33:18 10° NE visible
8 Apr ? 21:07:06 10° SSW 21:13:03 52° WNW 21:19:02 10° N visible
9 Apr ? 19:39:15 10° SSE 19:44:51 39° E 19:50:27 10° NNE visible
9 Apr ? 21:24:22 10° SW 21:29:53 34° WNW 21:35:26 10° N visible
10 Apr ? 19:55:22 10° S 20:01:22 60° E 20:07:22 10° NNE visible
10 Apr ? 21:42:04 10° WSW 21:46:50 23° WNW 21:51:37 10° NNW visible
11 Apr ? 20:11:51 10° S 20:17:58 89° W 20:24:08 10° N visible
11 Apr ? 22:00:24 10° W 22:03:54 15° WNW 22:07:25 10° NNW visible
12 Apr ? 20:28:39 10° SSW 20:34:40 59° WNW 20:40:43 10° N visible
13 Apr ? 20:45:49 10° SW 20:51:28 39° WNW 20:57:10 10° N visible
